Regional Weather Roundup
Issued by NWS

Home | Current Version | Previous Version | Text Only | Print | Product List | Glossary Off
Versions: 1 2 3 4 5 6 7 8 9 10 11 12 13 14 15 16 17 18 19 20 21 22 23 24 25 26 27 28 29 30 31 32 33 34 35 36 37 38 39 40 41 42 43 44 45 46 47 48 49 50

000
ASUS45 KTFX 230904
RWRMT
MONTANA HOURLY WEATHER ROUNDUP
NATIONAL WEATHER SERVICE GREAT FALLS MT
304 AM MDT TUE SEP 23 2014

NOTE: "FAIR" INDICATES FEW OR NO CLOUDS BELOW 12000 FEET WITH NO
SIGNIFICANT WEATHER AND/OR OBSTRUCTIONS TO VISIBILITY.

* THESE STATIONS ARE NOT UNDER NWS QUALITY CONTROL. THEY DO NOT
   REPORT WEATHER SUCH AS PRECIPITATION OR FOG.

MTZ001>007-043-231000-
WEST OF THE DIVIDE
CITY           SKY/WX    TMP DP  RH WIND       PRES   REMARKS
KALISPELL      PTCLDY    48  45  89 CALM      29.96S
MISSOULA       PTCLDY    61  45  56 CALM      30.03R
BUTTE          CLEAR     43  39  86 SE5       30.16R
MULLAN PASS    CLOUDY    55  43  64 W8        30.15R
* ESSEX        N/A       52  44  74 SE4G11     N/A
* LINCOLN      N/A       41  36  82 N1         N/A
* POLSON       N/A       60  42  52 SE1        N/A
* RONAN APT    PTCLDY    55  45  69 N/A        N/A
* SEELEY LAKE  N/A       43  36  76 E1         N/A
* THOMP F APT  CLOUDY    48  46  93 N3         N/A
$$

MTZ008-052>055-231000-
SOUTHWEST MONTANA
CITY           SKY/WX    TMP DP  RH WIND       PRES   REMARKS
BOZEMAN        PTCLDY    46  43  89 CALM      30.09R
DILLON         PTCLDY    54  45  72 S8        30.13R
W YELLOWSTONE  CLOUDY    46  46 100 CALM      30.24R
* THREE FORKS  PTCLDY    48  32  54 N/A        N/A
* BOULDER HILL N/A       56  43  62 SW7        N/A
* MONIDA PASS  N/A       44  44 100 SE6        N/A
* RAYNOLDS PAS N/A       48  27  44 SE4        N/A
* WHITEHALL    N/A       50  46  86 VRB3       N/A
* WISE RIVER   N/A       44  41  89 SW2        N/A
$$

MTZ009>010-012-014-046-048-049-054-231000-
EAST SLOPES AND CENTRAL MONTANA
CITY           SKY/WX    TMP DP  RH WIND       PRES   REMARKS
CUT BANK       PTCLDY    61  43  52 W14       29.94R
GREAT FALLS    CLEAR     63  46  54 SW14      29.95R
HELENA         CLEAR     55  46  72 SW3       30.04R
MALMSTROM AFB  MOCLDY    63  48  58 W9        29.95S
* CONRAD       CLEAR     57  46  67 N/A        N/A
* EAST GLACIER N/A       57  42  57 W8         N/A
* MONARCH      N/A       53  43  69 S10        N/A
* PENDROY      N/A       63  43  48 NW14       N/A
* ROGERS PASS  N/A       55  36  49 NW2        N/A
* SAINT MARY   N/A       50  43  77 SE4        N/A
* SWEET GRASS  N/A       65  42  43 S16        N/A
$$

MTZ011-013-016-021-035-040-045-047-050-051-231000-
NORTH CENTRAL MONTANA
CITY           SKY/WX    TMP DP  RH WIND       PRES   REMARKS
HAVRE          CLEAR     52  46  80 W5        29.85S
LEWISTOWN      CLEAR     50  45  83 SE7       29.97R
* CHESTER      N/A       51  42  71 N/A        N/A
* DENTON       N/A       55  46  72 S4         N/A
* GEYSER       N/A       57  44  62 W6         N/A
* JUDITH GAP   N/A       53  48  83 SW1        N/A
* LOMA         N/A       61  47  60 W6         N/A
$$

MTZ017>020-022>027-061-062-231000-
NORTHEAST MONTANA
CITY           SKY/WX    TMP DP  RH WIND       PRES   REMARKS
GLASGOW        CLEAR     52  46  80 SE7       29.83S
GLENDIVE       CLEAR     52  46  80 NW5       29.86S
JORDAN         CLEAR     48  46  93 W5        29.85S
SIDNEY         CLEAR     48  45  89 N5        29.86S
WOLF POINT     CLEAR     52  46  80 CALM      29.84S
* BEAVER HILL  N/A       57  50  78 SE5        N/A
* CIRCLE       N/A       53  47  80 N/A        N/A
* LINDSAY DVD  N/A       53  48  83 W2         N/A
* NAVAJO       N/A       53  47  80 S4         N/A
* SACO         N/A       47  45  93 W5G10      N/A
$$

MTZ028>042-056>058-231000-
SOUTHCENTRAL AND SOUTHEAST MONTANA
CITY           SKY/WX    TMP DP  RH WIND       PRES   REMARKS
BAKER          PTCLDY    55  48  77 CALM      29.87F
BILLINGS       PTCLDY    63  46  54 SW15      29.94S
LIVINGSTON     PTCLDY    63  46  54 W20       30.04S
MILES CITY     CLEAR     55  46  72 CALM      29.85F
* LAUREL APT   PTCLDY    57  45  64 N/A        N/A
* ROUNDUP APT  CLEAR     59  48  67 SW5        N/A
* ALZADA       N/A       62  54  75 N/A        N/A
* HYSHAM       N/A       62  47  58 W7         N/A
* LAME DEER    N/A       61  48  62 W10        N/A
* REED POINT   N/A       53  48  83 W1         N/A
* ROSCOE HILL  N/A       62  35  37 S9G14      N/A
$$

REGIONAL REPORTS...DAKOTAS
CITY           SKY/WX    TMP DP  RH WIND       PRES   REMARKS
WILLISTON      CLEAR     50  46  86 NE3       29.85S
DICKINSON      PTCLDY    52  48  86 S9        29.86F
BEACH          N/A       50  50 100 S5        29.87S
CROSBY         CLEAR     54  50  86 S6        29.86F
TIOGA          CLEAR     45  45 100 E7        29.91S
WATFORD CITY   CLEAR     48  46  93 CALM      29.84S
BISMARCK       CLEAR     55  52  90 SE8       29.91F
GRAND FORKS    CLEAR     52  48  86 SE8       30.01S
FARGO          CLEAR     57  48  72 SE13      30.03F
RAPID CITY     MOCLDY    57  55  93 S7        29.90F
$$

REGIONAL REPORTS...WYOMING/IDAHO/WASHINGTON
CITY           SKY/WX    TMP DP  RH WIND       PRES   REMARKS
GILLETTE       CLOUDY    57  50  78 SW5       29.97S
SHERIDAN       CLEAR     54  45  72 S7        29.96F
CODY           CLEAR     63  45  52 W8        30.06S
YELLOWSTONE LA PTCLDY    46  45  96 CALM      30.30S
SALMON         PTCLDY    55  50  83 E3        30.10S
MULLAN PASS    CLOUDY    55  43  64 W8        30.15S
SAND POINT     CLOUDY    66  50  56 SW8       29.97R
SPOKANE        CLOUDY    64  54  70 SE9       29.96F

$$



USA.gov is the U.S. government's official web portal to all federal, state and local government web resources and services.